Home   Weather   Santa Cruz   Past weeks

Flag for USA Past Weather in Santa Cruz, California, USA — Yesterday and Last 2 Weeks

Now
59 °F

Clear.


Feels Like: 59 °F
Forecast: 57 / 72 °F
Wind: No wind

Location: Watsonville Municipal Airport

Current Time: Aug 17, 2018 at 12:37:17 am

Latest Report: Aug 16, 2018 at 11:53 pm


Visibility: 9 mi

Pressure: 30.06 "Hg

Humidity: 84%

Dew Point: 54 °F

Location of Santa CruzLocation

Past Weather in Santa Cruz — Graph

°F

Santa Cruz Temperature Yesterday

Maximum temperature yesterday: 77 °F (at 2:53 pm)
Minimum temperature yesterday: 54 °F (at 4:53 am)
Average temperature yesterday: 64 °F

High & Low Weather Summary for the Past Weeks

 TemperatureHumidityPressure
High80 °F (Aug 6, 1:53 pm)100% (Aug 2, 3:53 am)30.06 "Hg (Aug 2, 3:53 am)
Low48 °F (Aug 5, 6:53 am)36% (Aug 6, 1:53 pm)29.88 "Hg (Aug 7, 6:53 pm)
Average58 °F85%29.96 "Hg
* Reported Aug 1 10:53 pm — Aug 16 10:53 pm, Santa Cruz. Weather by CustomWeather, © 2018

Note: Actual official high and low records may vary slightly from our data, if they occured in-between our weather recording intervals... More about our weather records

Advertising

Santa Cruz Weather History for the Previous 24 Hours

Scroll right to see more
 ConditionsComfort  
Time TempWeatherWind HumidityBarometerVisibility
10:53 pm
Thu, Aug 16
60 °FClear.No wind80%30.06 "Hg10 mi
9:53 pm60 °FClear.5 mph80%30.06 "Hg10 mi
8:53 pm60 °FClear.6 mph83%30.04 "Hg10 mi
7:53 pm61 °FSunny.7 mph81%30.03 "Hg8 mi
6:53 pm64 °FSunny.8 mph73%30.03 "Hg9 mi
5:53 pm70 °FSunny.8 mph61%30.02 "Hg9 mi
4:53 pm74 °FSunny.9 mph52%30.02 "Hg10 mi
3:53 pm76 °FSunny.9 mph50%30.02 "Hg10 mi
2:53 pm77 °FSunny.9 mph50%30.03 "Hg10 mi
1:53 pm76 °FSunny.10 mph52%30.03 "Hg10 mi
12:53 pm76 °FSunny.9 mph52%30.03 "Hg10 mi
11:53 am73 °FSunny.9 mph57%30.05 "Hg10 mi
10:53 am71 °FSunny.No wind61%30.05 "Hg10 mi
9:53 am67 °FSunny.3 mph73%30.05 "Hg10 mi
8:53 am63 °FSunny.3 mph81%30.05 "Hg9 mi
7:53 am60 °FSunny.No wind86%30.03 "Hg10 mi
6:53 am54 °FSunny.6 mph97%30.01 "Hg8 mi
5:53 am54 °FClear.3 mph97%29.99 "Hg10 mi
4:53 am54 °FClear.No wind97%29.98 "Hg9 mi
3:53 am56 °FClear.No wind90%29.98 "Hg10 mi
2:53 am56 °FClear.3 mph90%29.97 "Hg10 mi
1:53 am57 °FClear.No wind90%29.97 "Hg10 mi
12:53 am57 °FClear.No wind93%29.97 "Hg10 mi
Weather by CustomWeather, © 2018

See weather overview